Retour au catalogue

STARLINK-3619

ActifCommunicationsVLEO
NORAD 51787·PAYLOAD·🇺🇸 United States

Lancé Feb 25, 2022 depuis Vandenberg Space Force Base

Loading…

Prochains Passages (prochaines 24 heures)

TLE

FraisSource: CelesTrak SupGP

Époque: Sep 14, 2026, 20:50 UTC

1 51787C 22017V   26257.86854167  .00010676  00000+0  31537-3 0  2575
2 51787  53.1587 203.6984 0001426  91.2654  46.0894 15.34389305    14

Suivez STARLINK-3619 en temps réel avec AllMySat

Download on the App Store